Time,TemperatureF,DewpointF,PressureIn,WindDirection,WindDirectionDegrees,WindSpeedMPH,WindSpeedGustMPH,Humidity,HourlyPrecipIn,Conditions,Clouds,dailyrainin,SoftwareType,DateUTC
2013-03-02 00:01:00,39.0,19.0,30.37,ENE,63,0.0,1.0,44,0.00,,,0.00,,2013-03-02 07:01:00,
2013-03-02 00:11:00,39.0,19.0,30.37,ENE,63,0.0,1.0,44,0.00,,,0.00,,2013-03-02 07:11:00,
2013-03-02 00:21:00,39.0,20.0,30.36,NW,321,0.0,3.0,46,0.00,,,0.00,,2013-03-02 07:21:00,
2013-03-02 00:32:00,39.0,20.0,30.36,NW,321,0.0,3.0,46,0.00,,,0.00,,2013-03-02 07:32:00,
2013-03-02 00:42:00,39.0,20.0,30.36,NW,321,0.0,3.0,46,0.00,,,0.00,,2013-03-02 07:42:00,
2013-03-02 00:52:00,40.0,20.0,30.38,NNE,29,0.0,3.0,45,0.00,,,0.00,,2013-03-02 07:52:00,
2013-03-02 01:01:00,40.0,20.0,30.38,WNW,299,0.0,2.0,45,0.00,,,0.00,,2013-03-02 08:01:00,
2013-03-02 01:11:00,40.0,20.0,30.38,WNW,299,0.0,2.0,45,0.00,,,0.00,,2013-03-02 08:11:00,
2013-03-02 01:21:00,40.0,20.0,30.39,NW,310,1.0,4.0,45,0.00,,,0.00,,2013-03-02 08:21:00,
2013-03-02 01:32:00,40.0,20.0,30.38,WNW,294,4.0,10.0,45,0.00,,,0.00,,2013-03-02 08:32:00,
2013-03-02 01:42:00,40.0,20.0,30.38,WNW,294,4.0,10.0,45,0.00,,,0.00,,2013-03-02 08:42:00,
2013-03-02 01:52:00,40.0,20.0,30.38,WNW,293,8.0,16.0,45,0.00,,,0.00,,2013-03-02 08:52:00,
2013-03-02 02:01:00,39.0,20.0,30.38,NW,315,3.0,7.0,47,0.00,,,0.00,,2013-03-02 09:01:00,
2013-03-02 02:11:00,39.0,20.0,30.38,NW,315,3.0,7.0,47,0.00,,,0.00,,2013-03-02 09:11:00,
2013-03-02 02:21:00,39.0,20.0,30.37,NW,311,2.0,7.0,47,0.00,,,0.00,,2013-03-02 09:21:00,
2013-03-02 02:32:00,39.0,21.0,30.38,North,353,1.0,5.0,48,0.00,,,0.00,,2013-03-02 09:32:00,
2013-03-02 02:42:00,39.0,21.0,30.38,North,353,1.0,5.0,48,0.00,,,0.00,,2013-03-02 09:42:00,
2013-03-02 02:51:00,37.0,20.0,30.38,WNW,285,0.0,2.0,50,0.00,,,0.00,,2013-03-02 09:51:00,
2013-03-02 03:01:00,37.0,20.0,30.37,WSW,258,0.0,1.0,50,0.00,,,0.00,,2013-03-02 10:01:00,
2013-03-02 03:15:00,37.0,20.0,30.37,WSW,258,0.0,1.0,50,0.00,,,0.00,,2013-03-02 10:15:00,
2013-03-02 03:22:00,35.0,20.0,30.37,WSW,239,0.0,1.0,53,0.00,,,0.00,,2013-03-02 10:22:00,
2013-03-02 03:32:00,37.0,21.0,30.37,North,9,1.0,6.0,52,0.00,,,0.00,,2013-03-02 10:32:00,
2013-03-02 03:42:00,37.0,21.0,30.37,North,9,1.0,6.0,52,0.00,,,0.00,,2013-03-02 10:42:00,
2013-03-02 03:52:00,36.0,21.0,30.38,North,3,0.0,4.0,53,0.00,,,0.00,,2013-03-02 10:52:00,
2013-03-02 04:01:00,35.0,20.0,30.38,NNW,342,0.0,2.0,54,0.00,,,0.00,,2013-03-02 11:01:00,
2013-03-02 04:11:00,35.0,20.0,30.38,NNW,342,0.0,2.0,54,0.00,,,0.00,,2013-03-02 11:11:00,
2013-03-02 04:21:00,34.0,20.0,30.38,NNW,337,0.0,3.0,56,0.00,,,0.00,,2013-03-02 11:21:00,
2013-03-02 04:32:00,35.0,20.0,30.38,NW,326,0.0,4.0,55,0.00,,,0.00,,2013-03-02 11:32:00,
2013-03-02 04:42:00,35.0,20.0,30.38,NW,326,0.0,4.0,55,0.00,,,0.00,,2013-03-02 11:42:00,
2013-03-02 04:52:00,35.0,20.0,30.39,NNW,332,0.0,5.0,55,0.00,,,0.00,,2013-03-02 11:52:00,
2013-03-02 05:02:00,34.0,20.0,30.39,NW,312,0.0,1.0,56,0.00,,,0.00,,2013-03-02 12:02:00,
2013-03-02 05:11:00,34.0,20.0,30.39,NW,312,0.0,1.0,56,0.00,,,0.00,,2013-03-02 12:11:00,
2013-03-02 05:21:00,34.0,20.0,30.39,NW,312,0.0,1.0,56,0.00,,,0.00,,2013-03-02 12:21:00,
2013-03-02 05:33:00,33.0,19.0,30.40,NW,312,0.0,1.0,57,0.00,,,0.00,,2013-03-02 12:33:00,
2013-03-02 05:43:00,33.0,19.0,30.40,NW,312,0.0,1.0,57,0.00,,,0.00,,2013-03-02 12:43:00,
2013-03-02 05:53:00,33.0,19.0,30.40,North,6,0.0,2.0,57,0.00,,,0.00,,2013-03-02 12:53:00,
2013-03-02 06:01:00,34.0,20.0,30.40,NNE,24,0.0,3.0,57,0.00,,,0.00,,2013-03-02 13:01:00,
2013-03-02 06:11:00,34.0,20.0,30.40,NNE,24,0.0,3.0,57,0.00,,,0.00,,2013-03-02 13:11:00,
2013-03-02 06:22:00,33.0,19.0,30.40,North,0,0.0,0.0,56,0.00,,,0.00,,2013-03-02 13:22:00,
2013-03-02 06:32:00,33.0,20.0,30.40,North,0,0.0,0.0,58,0.00,,,0.00,,2013-03-02 13:32:00,
2013-03-02 06:42:00,33.0,20.0,30.40,North,0,0.0,0.0,58,0.00,,,0.00,,2013-03-02 13:42:00,
2013-03-02 06:52:00,33.0,20.0,30.40,North,0,0.0,0.0,58,0.00,,,0.00,,2013-03-02 13:52:00,
2013-03-02 07:01:00,33.0,20.0,30.41,ESE,102,0.0,2.0,59,0.00,,,0.00,,2013-03-02 14:01:00,
2013-03-02 07:11:00,33.0,20.0,30.41,ESE,102,0.0,2.0,59,0.00,,,0.00,,2013-03-02 14:11:00,
2013-03-02 07:21:00,33.0,20.0,30.41,NNE,24,0.0,3.0,59,0.00,,,0.00,,2013-03-02 14:21:00,
2013-03-02 07:32:00,34.0,20.0,30.42,North,352,2.0,5.0,57,0.00,,,0.00,,2013-03-02 14:32:00,
2013-03-02 07:42:00,34.0,20.0,30.42,North,352,2.0,5.0,57,0.00,,,0.00,,2013-03-02 14:42:00,
2013-03-02 07:52:00,36.0,22.0,30.42,NNW,348,0.0,3.0,56,0.00,,,0.00,,2013-03-02 14:52:00,
2013-03-02 08:02:00,38.0,22.0,30.42,North,350,2.0,8.0,53,0.00,,,0.00,,2013-03-02 15:02:00,
2013-03-02 08:11:00,38.0,22.0,30.42,North,350,2.0,8.0,53,0.00,,,0.00,,2013-03-02 15:11:00,
2013-03-02 08:21:00,40.0,22.0,30.42,NNW,345,3.0,8.0,49,0.00,,,0.00,,2013-03-02 15:21:00,
2013-03-02 08:32:00,41.0,22.0,30.42,NNW,347,3.0,8.0,47,0.00,,,0.00,,2013-03-02 15:32:00,
2013-03-02 08:42:00,41.0,22.0,30.42,NNW,347,3.0,8.0,47,0.00,,,0.00,,2013-03-02 15:42:00,
2013-03-02 08:52:00,44.0,26.0,30.45,NNW,347,3.0,7.0,48,0.00,,,0.00,,2013-03-02 15:52:00,
2013-03-02 09:02:00,44.0,25.0,30.44,NNW,347,3.0,8.0,47,0.00,,,0.00,,2013-03-02 16:02:00,
2013-03-02 09:11:00,44.0,25.0,30.44,NNW,347,3.0,8.0,47,0.00,,,0.00,,2013-03-02 16:11:00,
2013-03-02 09:21:00,46.0,25.0,30.44,NNW,344,5.0,12.0,44,0.00,,,0.00,,2013-03-02 16:21:00,
2013-03-02 09:32:00,46.0,24.0,30.43,NNW,341,4.0,11.0,42,0.00,,,0.00,,2013-03-02 16:32:00,
2013-03-02 09:42:00,46.0,24.0,30.43,NNW,341,4.0,11.0,42,0.00,,,0.00,,2013-03-02 16:42:00,
2013-03-02 09:52:00,46.0,24.0,30.43,NNW,341,4.0,11.0,42,0.00,,,0.00,,2013-03-02 16:52:00,
2013-03-02 10:01:00,48.0,24.0,30.43,NNW,341,3.0,8.0,39,0.00,,,0.00,,2013-03-02 17:01:00,
2013-03-02 10:11:00,48.0,24.0,30.43,NNW,341,3.0,8.0,39,0.00,,,0.00,,2013-03-02 17:11:00,
2013-03-02 10:21:00,49.0,25.0,30.42,North,356,4.0,10.0,38,0.00,,,0.00,,2013-03-02 17:21:00,
2013-03-02 10:32:00,50.0,26.0,30.42,North,353,3.0,8.0,39,0.00,,,0.00,,2013-03-02 17:32:00,
2013-03-02 10:42:00,50.0,26.0,30.42,North,353,3.0,8.0,39,0.00,,,0.00,,2013-03-02 17:42:00,
2013-03-02 10:52:00,51.0,24.0,30.41,North,352,5.0,12.0,35,0.00,,,0.00,,2013-03-02 17:52:00,
2013-03-02 11:01:00,52.0,26.0,30.40,North,350,5.0,11.0,36,0.00,,,0.00,,2013-03-02 18:01:00,
2013-03-02 11:11:00,52.0,26.0,30.40,North,350,5.0,11.0,36,0.00,,,0.00,,2013-03-02 18:11:00,
2013-03-02 11:22:00,52.0,26.0,30.40,North,350,5.0,11.0,36,0.00,,,0.00,,2013-03-02 18:22:00,
2013-03-02 11:32:00,55.0,26.0,30.40,NNW,339,4.0,10.0,32,0.00,,,0.00,,2013-03-02 18:32:00,
2013-03-02 11:42:00,55.0,26.0,30.40,NNW,339,4.0,10.0,32,0.00,,,0.00,,2013-03-02 18:42:00,
2013-03-02 11:52:00,56.0,26.0,30.39,NNW,330,5.0,12.0,31,0.00,,,0.00,,2013-03-02 18:52:00,
2013-03-02 12:01:00,56.0,26.0,30.39,NNW,330,5.0,12.0,31,0.00,,,0.00,,2013-03-02 19:01:00,
2013-03-02 12:11:00,56.0,26.0,30.39,NNW,330,5.0,12.0,31,0.00,,,0.00,,2013-03-02 19:11:00,
2013-03-02 12:22:00,58.0,27.0,30.38,NNW,330,4.0,10.0,30,0.00,,,0.00,,2013-03-02 19:22:00,
2013-03-02 12:32:00,59.0,25.0,30.36,NNW,338,3.0,8.0,27,0.00,,,0.00,,2013-03-02 19:32:00,
2013-03-02 12:42:00,59.0,25.0,30.36,NNW,338,3.0,8.0,27,0.00,,,0.00,,2013-03-02 19:42:00,
2013-03-02 12:52:00,59.0,23.0,30.35,NNW,334,4.0,10.0,25,0.00,,,0.00,,2013-03-02 19:52:00,
2013-03-02 13:01:00,60.0,24.0,30.34,NW,314,5.0,11.0,25,0.00,,,0.00,,2013-03-02 20:01:00,
2013-03-02 13:11:00,60.0,24.0,30.34,NW,314,5.0,11.0,25,0.00,,,0.00,,2013-03-02 20:11:00,
2013-03-02 13:22:00,60.0,23.0,30.33,NW,317,4.0,11.0,24,0.00,,,0.00,,2013-03-02 20:22:00,
2013-03-02 13:32:00,61.0,23.0,30.32,WNW,297,4.0,10.0,23,0.00,,,0.00,,2013-03-02 20:32:00,
2013-03-02 13:42:00,61.0,23.0,30.32,WNW,297,4.0,10.0,23,0.00,,,0.00,,2013-03-02 20:42:00,
2013-03-02 13:52:00,62.0,22.0,30.32,NW,321,4.0,12.0,21,0.00,,,0.00,,2013-03-02 20:52:00,
2013-03-02 14:02:00,63.0,22.0,30.31,NNW,346,5.0,13.0,21,0.00,,,0.00,,2013-03-02 21:02:00,
2013-03-02 14:11:00,63.0,22.0,30.31,NNW,346,5.0,13.0,21,0.00,,,0.00,,2013-03-02 21:11:00,
2013-03-02 14:22:00,63.0,22.0,30.31,NNW,346,5.0,13.0,21,0.00,,,0.00,,2013-03-02 21:22:00,
2013-03-02 14:32:00,64.0,22.0,30.30,NNW,336,5.0,10.0,20,0.00,,,0.00,,2013-03-02 21:32:00,
2013-03-02 14:42:00,64.0,22.0,30.30,NNW,336,5.0,10.0,20,0.00,,,0.00,,2013-03-02 21:42:00,
2013-03-02 14:52:00,64.0,20.0,30.29,NNW,340,6.0,12.0,18,0.00,,,0.00,,2013-03-02 21:52:00,
2013-03-02 15:02:00,65.0,20.0,30.28,NNW,339,5.0,13.0,18,0.00,,,0.00,,2013-03-02 22:02:00,
2013-03-02 15:11:00,65.0,20.0,30.28,NNW,339,5.0,13.0,18,0.00,,,0.00,,2013-03-02 22:11:00,
2013-03-02 15:22:00,65.0,20.0,30.28,NNW,339,5.0,13.0,18,0.00,,,0.00,,2013-03-02 22:22:00,
2013-03-02 15:32:00,64.0,20.0,30.27,NNW,331,4.0,11.0,18,0.00,,,0.00,,2013-03-02 22:32:00,
2013-03-02 15:42:00,64.0,20.0,30.27,NNW,331,4.0,11.0,18,0.00,,,0.00,,2013-03-02 22:42:00,
2013-03-02 15:52:00,65.0,20.0,30.26,NNW,334,5.0,11.0,18,0.00,,,0.00,,2013-03-02 22:52:00,
2013-03-02 16:01:00,65.0,20.0,30.26,NW,315,5.0,11.0,18,0.00,,,0.00,,2013-03-02 23:01:00,
2013-03-02 16:11:00,65.0,20.0,30.26,WNW,298,5.0,11.0,18,0.00,,,0.00,,2013-03-02 23:11:00,
2013-03-02 16:21:00,65.0,20.0,30.26,WNW,298,5.0,11.0,18,0.00,,,0.00,,2013-03-02 23:21:00,
2013-03-02 16:32:00,65.0,20.0,30.26,WNW,298,5.0,11.0,18,0.00,,,0.00,,2013-03-02 23:32:00,
2013-03-02 16:42:00,65.0,20.0,30.26,WNW,298,5.0,11.0,18,0.00,,,0.00,,2013-03-02 23:42:00,
2013-03-02 16:52:00,65.0,19.0,30.25,NW,316,4.0,10.0,17,0.00,,,0.00,,2013-03-02 23:52:00,
2013-03-02 17:02:00,65.0,19.0,30.24,NW,310,3.0,10.0,17,0.00,,,0.00,,2013-03-03 00:02:00,
2013-03-02 17:11:00,65.0,19.0,30.24,NW,310,3.0,10.0,17,0.00,,,0.00,,2013-03-03 00:11:00,
2013-03-02 17:22:00,64.0,18.0,30.24,NW,314,2.0,7.0,17,0.00,,,0.00,,2013-03-03 00:22:00,
2013-03-02 17:32:00,63.0,16.0,30.25,NW,310,3.0,8.0,16,0.00,,,0.00,,2013-03-03 00:32:00,
2013-03-02 17:42:00,63.0,16.0,30.25,NW,310,3.0,8.0,16,0.00,,,0.00,,2013-03-03 00:42:00,
2013-03-02 17:52:00,62.0,18.0,30.24,NW,321,3.0,5.0,18,0.00,,,0.00,,2013-03-03 00:52:00,
2013-03-02 18:01:00,62.0,18.0,30.24,NW,321,3.0,5.0,18,0.00,,,0.00,,2013-03-03 01:01:00,
2013-03-02 18:11:00,62.0,18.0,30.24,NW,321,3.0,5.0,18,0.00,,,0.00,,2013-03-03 01:11:00,
2013-03-02 18:21:00,60.0,18.0,30.24,WNW,300,1.0,4.0,19,0.00,,,0.00,,2013-03-03 01:21:00,
2013-03-02 18:32:00,58.0,18.0,30.24,WNW,293,2.0,5.0,21,0.00,,,0.00,,2013-03-03 01:32:00,
2013-03-02 18:42:00,58.0,18.0,30.24,WNW,293,2.0,5.0,21,0.00,,,0.00,,2013-03-03 01:42:00,
2013-03-02 18:52:00,57.0,17.0,30.24,WNW,295,2.0,4.0,21,0.00,,,0.00,,2013-03-03 01:52:00,
2013-03-02 19:01:00,55.0,18.0,30.25,WNW,292,2.0,4.0,23,0.00,,,0.00,,2013-03-03 02:01:00,
2013-03-02 19:11:00,55.0,18.0,30.25,WNW,292,2.0,4.0,23,0.00,,,0.00,,2013-03-03 02:11:00,
2013-03-02 19:21:00,54.0,19.0,30.24,WNW,286,0.0,1.0,25,0.00,,,0.00,,2013-03-03 02:21:00,
2013-03-02 19:32:00,54.0,19.0,30.24,WNW,286,0.0,1.0,25,0.00,,,0.00,,2013-03-03 02:32:00,
2013-03-02 19:42:00,54.0,19.0,30.24,WNW,286,0.0,1.0,25,0.00,,,0.00,,2013-03-03 02:42:00,
2013-03-02 19:52:00,53.0,20.0,30.24,WNW,286,0.0,1.0,27,0.00,,,0.00,,2013-03-03 02:52:00,
2013-03-02 20:01:00,52.0,19.0,30.24,WNW,300,0.0,2.0,27,0.00,,,0.00,,2013-03-03 03:01:00,
2013-03-02 20:11:00,52.0,19.0,30.24,WNW,300,0.0,2.0,27,0.00,,,0.00,,2013-03-03 03:11:00,
2013-03-02 20:21:00,52.0,19.0,30.24,NNW,337,0.0,4.0,27,0.00,,,0.00,,2013-03-03 03:21:00,
2013-03-02 20:31:00,52.0,19.0,30.24,NNW,338,1.0,3.0,27,0.00,,,0.00,,2013-03-03 03:31:00,
2013-03-02 20:42:00,52.0,19.0,30.24,NNW,338,1.0,3.0,27,0.00,,,0.00,,2013-03-03 03:42:00,
2013-03-02 20:51:00,53.0,19.0,30.25,SW,233,2.0,8.0,26,0.00,,,0.00,,2013-03-03 03:51:00,
2013-03-02 21:01:00,53.0,19.0,30.25,SSW,213,2.0,5.0,26,0.00,,,0.00,,2013-03-03 04:01:00,
2013-03-02 21:11:00,53.0,19.0,30.25,SSW,213,2.0,5.0,26,0.00,,,0.00,,2013-03-03 04:11:00,
2013-03-02 21:21:00,51.0,18.0,30.26,SSW,210,1.0,4.0,27,0.00,,,0.00,,2013-03-03 04:21:00,
2013-03-02 21:31:00,50.0,18.0,30.26,SW,225,1.0,5.0,28,0.00,,,0.00,,2013-03-03 04:31:00,
2013-03-02 21:42:00,50.0,18.0,30.26,SW,225,1.0,5.0,28,0.00,,,0.00,,2013-03-03 04:42:00,
2013-03-02 21:52:00,51.0,19.0,30.26,SW,215,1.0,5.0,28,0.00,,,0.00,,2013-03-03 04:52:00,
2013-03-02 22:02:00,50.0,19.0,30.25,SSW,205,1.0,4.0,29,0.00,,,0.00,,2013-03-03 05:02:00,
2013-03-02 22:11:00,50.0,19.0,30.25,SSW,205,1.0,4.0,29,0.00,,,0.00,,2013-03-03 05:11:00,
2013-03-02 22:22:00,49.0,18.0,30.24,SSW,206,1.0,3.0,29,0.00,,,0.00,,2013-03-03 05:22:00,
2013-03-02 22:32:00,47.0,17.0,30.25,SW,221,0.0,2.0,30,0.00,,,0.00,,2013-03-03 05:32:00,
2013-03-02 22:42:00,47.0,17.0,30.25,SW,221,0.0,2.0,30,0.00,,,0.00,,2013-03-03 05:42:00,
2013-03-02 22:52:00,48.0,19.0,30.24,SW,219,0.0,2.0,31,0.00,,,0.00,,2013-03-03 05:52:00,
2013-03-02 23:02:00,46.0,17.0,30.24,West,260,0.0,2.0,31,0.00,,,0.00,,2013-03-03 06:02:00,
2013-03-02 23:11:00,46.0,17.0,30.24,West,260,0.0,2.0,31,0.00,,,0.00,,2013-03-03 06:11:00,
2013-03-02 23:21:00,47.0,19.0,30.24,WSW,238,0.0,2.0,32,0.00,,,0.00,,2013-03-03 06:21:00,
2013-03-02 23:31:00,46.0,18.0,30.23,SSW,211,0.0,3.0,32,0.00,,,0.00,,2013-03-03 06:31:00,
2013-03-02 23:42:00,46.0,18.0,30.23,SSW,211,0.0,3.0,32,0.00,,,0.00,,2013-03-03 06:42:00,
2013-03-02 23:52:00,46.0,19.0,30.23,WSW,250,0.0,3.0,33,0.00,,,0.00,,2013-03-03 06:52:00,